DateTimeUTC,F1_A11,F1_S11,BsB_S11,BsG_S11,BsR_S11,BbsB_S11,BbsG_S11,BbsR_S11,BaB_A11,BaG_A11,BaR_A11,Tu_S11,T_S11,Uu_S11,U_S11,P_S11,T1_A11
2021-08-22T11:00:00Z,00000200,20000000,,,,,,,-000.54,-000.64,-000.42,19.5,26.0,09.9,06.6,0678.0,31.0
2021-08-22T11:01:00Z,00000200,20000000,,,,,,,-000.07,0000.23,-000.09,19.5,26.0,09.6,06.5,0678.0,31.0
2021-08-22T11:02:00Z,00000200,20000000,,,,,,,-000.03,-000.20,0000.31,19.5,26.0,09.6,06.5,0678.0,31.0
2021-08-22T11:03:00Z,00000200,60000000,,,,,,,0001.43,0001.42,0001.02,19.5,26.0,09.6,06.5,0678.0,31.0
2021-08-22T11:04:00Z,00000200,40000000,0006.85,0005.90,0004.18,0001.03,0000.62,0000.46,0001.92,0002.21,0000.95,19.6,25.8,09.7,06.7,0678.9,31.0
2021-08-22T11:05:00Z,00000200,00000000,0007.03,0005.64,0003.99,0001.25,0000.88,0000.64,0001.48,0001.09,0001.53,19.7,25.8,09.7,06.7,0679.0,31.0
2021-08-22T11:06:00Z,00000200,00000000,0007.58,0005.95,0004.27,0000.14,0000.74,0000.46,0001.43,0001.16,0001.08,19.7,25.8,09.8,06.7,0679.0,31.0
2021-08-22T11:07:00Z,00000200,00000000,0007.40,0005.80,0003.67,0000.21,0000.72,0000.47,0001.75,0001.35,0000.92,19.7,25.8,09.8,06.7,0679.0,31.0
2021-08-22T11:08:00Z,00000200,00000000,0006.56,0005.31,0003.94,0001.06,0000.53,0000.49,0001.19,0001.43,0001.14,19.7,25.8,09.7,06.7,0679.0,31.0
2021-08-22T11:09:00Z,00000200,00000000,0006.73,0005.30,0003.50,0000.08,0000.59,0000.14,0001.45,0001.52,0001.16,19.7,25.8,09.7,06.7,0679.0,31.0
2021-08-22T11:10:00Z,00000200,00000000,0007.49,0005.09,0003.39,0001.35,0000.86,0000.40,0001.74,0001.59,0001.11,19.7,25.8,09.7,06.7,0679.0,31.0
2021-08-22T11:11:00Z,00000200,00000000,0006.97,0005.06,0003.70,0000.77,0000.68,0000.38,0001.60,0001.51,0001.39,19.7,25.8,09.7,06.7,0679.0,31.0
2021-08-22T11:12:00Z,00000200,00000000,0006.88,0005.30,0003.70,0000.93,0000.66,0000.02,0001.69,0001.17,0001.05,19.7,25.8,09.7,06.7,0679.0,31.0
2021-08-22T11:13:00Z,00000200,00000000,0007.79,0005.30,0004.01,0000.72,0000.33,0000.42,0001.56,0001.57,0001.33,19.7,25.8,09.8,06.8,0679.0,31.0
2021-08-22T11:14:00Z,00000200,00000000,0006.59,0005.42,0003.82,-000.05,0000.63,0000.80,0001.53,0001.37,0001.06,19.7,25.8,09.7,06.7,0679.0,31.0
2021-08-22T11:15:00Z,00000200,00000000,0006.05,0005.61,0003.80,0000.87,0000.46,0000.34,0001.35,0001.61,0001.32,19.7,25.8,09.7,06.7,0679.0,31.0
2021-08-22T11:16:00Z,00000200,00000000,0006.45,0005.09,0003.80,0000.74,0000.82,0000.69,0001.16,0001.17,0000.83,19.7,25.8,09.5,06.6,0679.0,31.0
2021-08-22T11:17:00Z,00000200,00000000,0006.34,0005.16,0003.92,0001.03,0000.62,0000.56,0001.77,0001.35,0001.15,19.8,25.8,09.6,06.6,0679.0,31.0
2021-08-22T11:18:00Z,00000200,00000000,0007.41,0005.45,0003.59,0001.09,0001.02,0000.44,0001.34,0001.24,0001.22,19.8,25.8,09.7,06.7,0679.0,31.0
2021-08-22T11:19:00Z,00000200,00000000,0006.41,0005.60,0003.96,0000.36,0000.61,0000.47,0001.78,0001.87,0001.30,19.8,25.8,09.7,06.7,0679.0,31.0
2021-08-22T11:20:00Z,00000200,00000000,0006.20,0005.21,0003.53,0000.80,0000.82,0000.33,0001.68,0001.30,0000.86,19.8,25.9,09.8,06.8,0679.0,31.0
2021-08-22T11:21:00Z,00000200,00000000,0006.53,0005.22,0004.04,0000.79,0000.79,0000.57,0001.57,0001.26,0001.26,19.8,25.9,09.9,06.9,0679.0,31.0
2021-08-22T11:22:00Z,00000200,00000000,0006.39,0005.28,0003.48,0000.76,0000.52,0000.20,0000.54,0000.81,0000.69,19.8,25.8,09.7,06.7,0679.0,31.0
2021-08-22T11:23:00Z,00000200,00000000,0005.37,0004.72,0003.27,0000.26,0000.60,0000.37,0001.42,0001.32,0001.13,19.8,25.9,09.4,06.5,0679.0,31.0
2021-08-22T11:24:00Z,00000200,00000000,0006.01,0005.05,0003.23,0000.39,0000.50,0000.43,0001.25,0001.12,0000.58,19.8,25.9,09.4,06.5,0679.0,31.0
2021-08-22T11:25:00Z,00000200,00000000,0006.58,0004.89,0003.50,0000.75,0000.55,0000.34,0001.87,0001.88,0001.76,19.8,25.8,09.4,06.5,0679.0,31.0
2021-08-22T11:26:00Z,00000200,00000000,0005.25,0004.61,0003.25,0000.46,0000.44,0000.36,0000.35,0000.23,-000.35,19.8,25.9,09.4,06.5,0679.0,31.0
2021-08-22T11:27:00Z,00000200,00000000,0005.13,0004.96,0003.81,0000.69,0000.86,0000.45,0001.61,0001.80,0001.48,19.8,25.9,08.9,06.2,0679.0,31.0
2021-08-22T11:28:00Z,00000200,00000000,0005.15,0004.50,0003.28,0000.16,0000.26,0000.31,0001.12,0000.82,0001.06,19.8,25.9,09.0,06.2,0679.0,31.0
2021-08-22T11:29:00Z,00000200,00000000,0006.38,0005.16,0003.26,0000.47,0000.59,0000.27,0001.51,0001.52,0001.14,19.8,25.9,09.0,06.2,0679.1,31.0
2021-08-22T11:30:00Z,00000200,00000000,0006.76,0005.10,0003.32,0000.30,0000.50,0000.01,0001.63,0001.22,0000.95,19.8,25.9,09.2,06.4,0679.0,31.0
2021-08-22T11:31:00Z,00000200,00000000,0005.79,0005.08,0003.79,0001.06,0000.84,0000.48,0001.27,0001.19,0001.29,19.8,25.9,09.4,06.5,0679.0,31.0
2021-08-22T11:32:00Z,00000200,00000000,0006.52,0005.04,0003.23,0000.26,0000.46,0000.46,0001.74,0001.23,0000.95,19.8,25.9,09.3,06.4,0679.1,31.0
2021-08-22T11:33:00Z,00000200,00000000,0005.80,0005.17,0003.29,0000.87,0000.91,0000.40,0001.00,0001.69,0000.89,19.9,25.9,09.2,06.4,0679.1,31.0
2021-08-22T11:34:00Z,00000200,00000000,0006.14,0005.47,0003.85,0000.97,0000.86,0000.23,0001.74,0001.39,0001.65,19.9,25.9,09.4,06.5,0679.1,31.0
2021-08-22T11:35:00Z,00000200,00000000,0007.06,0005.09,0003.36,0001.07,0000.51,0000.45,0001.15,0001.20,0001.18,19.9,25.9,09.4,06.5,0679.0,31.0
2021-08-22T11:36:00Z,00000200,00000000,0005.59,0004.69,0003.41,0000.72,0000.57,0000.52,0001.60,0001.38,0000.68,19.9,25.9,09.3,06.4,0679.1,31.0
2021-08-22T11:37:00Z,00000200,00000000,0006.27,0005.29,0003.63,0000.57,0000.67,0000.29,0001.36,0001.02,0001.13,19.9,25.9,09.4,06.5,0679.0,31.0
2021-08-22T11:38:00Z,00000200,00000000,0006.56,0004.98,0003.59,0000.82,0000.95,0000.19,0001.58,0001.53,0000.84,19.9,25.9,09.4,06.5,0679.0,31.0
2021-08-22T11:39:00Z,00000200,00000000,0006.42,0004.94,0003.49,0000.76,0000.86,0000.33,0001.67,0001.39,0001.42,19.9,25.9,09.5,06.6,0679.0,31.0
2021-08-22T11:40:00Z,00000200,00000000,0006.66,0004.63,0003.37,0000.73,0000.50,0000.11,0001.11,0001.40,0000.97,19.9,25.9,09.4,06.5,0679.0,31.0
2021-08-22T11:41:00Z,00000200,00000000,0006.36,0005.24,0003.35,-000.13,0000.87,0000.47,0001.78,0001.94,0001.15,19.9,25.9,09.5,06.6,0679.0,31.0
2021-08-22T11:42:00Z,00000200,00000000,0006.26,0005.07,0003.76,0000.29,0000.64,0000.63,0001.49,0000.94,0001.23,19.9,25.9,09.6,06.7,0679.0,31.0
2021-08-22T11:43:00Z,00000200,00000000,0006.64,0004.90,0003.93,0000.34,0000.65,0000.54,0001.09,0001.23,0001.06,19.9,25.9,09.6,06.7,0679.0,31.1
2021-08-22T11:44:00Z,00000200,00000000,0006.90,0005.53,0003.56,0000.90,0000.81,0000.40,0001.54,0001.47,0001.11,19.9,25.9,09.5,06.6,0679.0,31.0
2021-08-22T11:45:00Z,00000200,00000000,0006.19,0005.58,0003.57,0001.03,0000.98,0000.06,0001.69,0001.25,0001.01,20.0,25.9,09.6,06.7,0679.0,31.0
2021-08-22T11:46:00Z,00000200,00000000,0007.22,0005.45,0003.77,0001.04,0000.60,0000.43,0001.51,0001.43,0001.22,19.9,26.0,09.6,06.7,0679.0,31.0
2021-08-22T11:47:00Z,00000200,00000000,0007.10,0005.02,0003.89,0000.59,0000.77,0000.37,0001.68,0001.76,0001.00,20.0,26.0,09.7,06.7,0679.0,31.0
2021-08-22T11:48:00Z,00000200,00000000,0007.10,0004.83,0003.95,0000.65,0000.70,0000.42,0001.12,0001.11,0001.12,19.9,26.0,09.5,06.6,0679.0,31.0
2021-08-22T11:49:00Z,00000200,00000000,0006.50,0005.20,0004.12,0000.77,0000.61,0000.66,0001.84,0001.34,0001.58,20.0,26.0,09.6,06.7,0679.0,31.0
2021-08-22T11:50:00Z,00000200,00000000,0007.11,0005.48,0003.72,0000.71,0000.41,0000.37,0001.30,0001.70,0000.89,20.0,26.0,09.6,06.7,0679.0,31.0
2021-08-22T11:51:00Z,00000200,00000000,0006.77,0005.47,0003.66,0001.02,0000.59,0000.41,0001.46,0001.11,0001.12,20.0,26.0,09.5,06.6,0679.0,31.0
2021-08-22T11:52:00Z,00000200,00000000,0005.37,0004.86,0003.63,0000.31,0000.45,0000.60,0001.00,0001.08,0000.85,20.0,26.0,09.6,06.7,0679.0,31.0
2021-08-22T11:53:00Z,00000200,00000000,0006.91,0005.10,0003.30,0000.34,0000.72,0000.77,0001.37,0001.43,0000.92,20.0,26.0,09.4,06.5,0679.0,31.0
2021-08-22T11:54:00Z,00000200,00000000,0005.95,0005.28,0003.35,-000.04,0000.40,0000.41,0001.58,0001.34,0000.68,20.0,26.0,09.5,06.6,0679.0,31.0
2021-08-22T11:55:00Z,00000200,00000000,0006.71,0005.10,0003.59,0000.44,0000.72,0000.29,0001.78,0001.53,0001.81,20.0,26.0,09.7,06.7,0679.0,31.0
2021-08-22T11:56:00Z,00000200,00000000,0006.49,0004.76,0004.04,0000.36,0000.64,0000.61,0001.30,0000.85,0000.60,20.0,26.0,09.7,06.8,0679.0,31.0
2021-08-22T11:57:00Z,00000200,40000000,,,,,,,0000.08,0000.58,0000.43,20.0,26.0,10.1,07.0,0679.0,31.0
2021-08-22T11:58:00Z,00000200,60000000,,,,,,,0000.09,-000.13,0000.20,19.8,26.1,09.4,06.4,0678.1,31.0
2021-08-22T11:59:00Z,00000200,20000000,,,,,,,-000.07,0000.04,-000.32,19.8,26.2,09.6,06.5,0678.0,31.0
